TimeCDT,TemperatureF,Dew PointF,Humidity,Sea Level PressureIn,VisibilityMPH,Wind Direction,Wind SpeedMPH,Gust SpeedMPH,PrecipitationIn,Events,Conditions,WindDirDegrees,DateUTC
12:53 AM,60.1,57.9,93,30.12,10.0,Calm,Calm,-,N/A,,Clear,0,2013-08-18 05:53:00
1:53 AM,57.0,55.9,96,30.12,8.0,Calm,Calm,-,N/A,,Clear,0,2013-08-18 06:53:00
2:53 AM,59.0,57.9,96,30.12,8.0,Calm,Calm,-,N/A,,Clear,0,2013-08-18 07:53:00
3:53 AM,55.9,55.9,100,30.11,7.0,Calm,Calm,-,N/A,,Clear,0,2013-08-18 08:53:00
4:53 AM,55.0,55.0,100,30.11,4.0,Calm,Calm,-,N/A,,Clear,0,2013-08-18 09:53:00
5:31 AM,55.4,55.4,100,30.14,1.2,Calm,Calm,-,N/A,,Clear,0,2013-08-18 10:31:00
5:35 AM,55.4,55.4,100,30.14,0.5,Calm,Calm,-,N/A,Fog,Fog,0,2013-08-18 10:35:00
5:44 AM,55.4,55.4,100,30.14,1.0,Calm,Calm,-,N/A,,Clear,0,2013-08-18 10:44:00
5:48 AM,55.4,55.4,100,30.14,3.0,Calm,Calm,-,N/A,,Clear,0,2013-08-18 10:48:00
6:02 AM,55.4,55.4,100,30.15,5.0,Calm,Calm,-,N/A,,Clear,0,2013-08-18 11:02:00
6:23 AM,55.4,55.4,100,30.15,1.5,Calm,Calm,-,N/A,,Clear,0,2013-08-18 11:23:00
6:26 AM,55.4,55.4,100,30.15,0.5,Calm,Calm,-,N/A,Fog,Fog,0,2013-08-18 11:26:00
6:34 AM,55.4,55.4,100,30.15,1.0,Calm,Calm,-,N/A,,Clear,0,2013-08-18 11:34:00
6:42 AM,55.4,55.4,100,30.15,6.0,Calm,Calm,-,N/A,,Clear,0,2013-08-18 11:42:00
6:53 AM,57.0,55.9,96,30.15,6.0,Calm,Calm,-,N/A,,Clear,0,2013-08-18 11:53:00
7:35 AM,62.6,60.8,94,30.17,3.0,Calm,Calm,-,N/A,,Partly Cloudy,0,2013-08-18 12:35:00
7:53 AM,64.0,61.0,90,30.15,5.0,Calm,Calm,-,N/A,,Partly Cloudy,0,2013-08-18 12:53:00
8:53 AM,68.0,62.1,81,30.16,9.0,NE,4.6,-,N/A,,Clear,40,2013-08-18 13:53:00
9:53 AM,71.1,63.0,75,30.16,10.0,NE,4.6,-,N/A,,Overcast,40,2013-08-18 14:53:00
10:53 AM,73.9,62.1,66,30.17,10.0,ENE,9.2,-,N/A,,Mostly Cloudy,60,2013-08-18 15:53:00
11:53 AM,73.9,61.0,64,30.16,10.0,NNE,9.2,-,N/A,,Overcast,20,2013-08-18 16:53:00
12:53 PM,77.0,62.1,60,30.14,10.0,Variable,5.8,-,N/A,,Clear,0,2013-08-18 17:53:00
1:53 PM,78.1,61.0,56,30.13,10.0,ENE,6.9,-,N/A,,Clear,60,2013-08-18 18:53:00
2:53 PM,78.1,62.1,58,30.11,10.0,East,9.2,-,N/A,,Scattered Clouds,100,2013-08-18 19:53:00
3:53 PM,77.0,61.0,58,30.10,10.0,SE,4.6,-,N/A,,Partly Cloudy,130,2013-08-18 20:53:00
4:53 PM,79.0,62.1,56,30.09,10.0,ESE,6.9,-,N/A,,Clear,120,2013-08-18 21:53:00
5:53 PM,78.1,62.1,58,30.08,10.0,ESE,5.8,-,N/A,,Clear,110,2013-08-18 22:53:00
6:53 PM,75.9,63.0,64,30.08,10.0,East,4.6,-,N/A,,Clear,90,2013-08-18 23:53:00
7:53 PM,71.1,64.9,81,30.08,10.0,Calm,Calm,-,N/A,,Clear,0,2013-08-19 00:53:00
8:53 PM,64.9,62.1,90,30.09,10.0,Calm,Calm,-,N/A,,Clear,0,2013-08-19 01:53:00
9:53 PM,64.0,61.0,90,30.10,10.0,ESE,3.5,-,N/A,,Clear,120,2013-08-19 02:53:00
10:53 PM,66.0,62.1,87,30.10,10.0,ESE,4.6,-,N/A,,Clear,120,2013-08-19 03:53:00
11:53 PM,63.0,61.0,93,30.11,9.0,Calm,Calm,-,N/A,,Clear,0,2013-08-19 04:53:00